Photometre #855[NE_1.6_Dp] Loftus_MO AOT

File : 20220919_855.hum

19/09/2022,06:44:08,TEMP=12.1,BA=5.64,STAT.h
19/09/2022,06:44:09,TEMP=12.1,BA=5.64,STAT.h
19/09/2022,06:45:01,TEMP=12.1,BA=5.64,STAT.h
19/09/2022,06:48:01,TEMP=12.1,BA=5.64,STAT.h
19/09/2022,06:48:35,TEMP=12.1,BA=5.64,STAT.h
19/09/2022,06:48:41,TEMP=12.1,BA=5.64,STAT.h
19/09/2022,06:53:47,TEMP=12.1,BA=5.64,STAT.h
19/09/2022,06:53:48,TEMP=12.1,BA=5.64,STAT.h
19/09/2022,06:54:01,TEMP=12.1,BA=5.64,STAT.h
19/09/2022,06:57:01,TEMP=12.1,BA=5.64,STAT.h
19/09/2022,06:59:59,TEMP=12.1,BA=5.64,STAT.h
19/09/2022,07:03:01,TEMP=12.1,BA=5.60,STAT.h
19/09/2022,07:06:01,TEMP=12.1,BA=5.60,STAT.h
19/09/2022,07:07:29,TEMP=12.1,BA=5.60,STAT.h
19/09/2022,07:07:30,TEMP=12.1,BA=5.60,STAT.h
19/09/2022,07:09:01,TEMP=12.1,BA=5.60,STAT.h
19/09/2022,07:12:22,TEMP=10.2,BA=5.64,STAT.D,ExtBa=12.30
19/09/2022,07:17:08,TEMP=10.5,BA=5.64,STAT.A,ExtBa=12.30
19/09/2022,07:28:55,TEMP=11.1,BA=5.64,STAT.B,ExtBa=12.30
19/09/2022,07:38:38,TEMP=12.7,BA=5.64,STAT.A,ExtBa=12.10
19/09/2022,07:41:09,TEMP=12.7,BA=5.64,STAT.A,ExtBa=12.20
19/09/2022,07:45:23,TEMP=12.7,BA=5.64,STAT.D,ExtBa=12.20
19/09/2022,07:48:13,TEMP=13.0,BA=5.64,STAT.A,ExtBa=12.20
19/09/2022,07:54:37,TEMP=13.0,BA=5.60,STAT.D,ExtBa=12.20
19/09/2022,07:56:37,TEMP=13.6,BA=5.60,STAT.A,ExtBa=12.20
19/09/2022,08:06:04,TEMP=13.0,BA=5.60,STAT.C,ExtBa=12.20
19/09/2022,08:15:53,TEMP=13.6,BA=5.64,STAT.b=11.0
19/09/2022,08:17:37,TEMP=13.5,BA=5.64,STAT.A,ExtBa=12.10
19/09/2022,08:30:23,TEMP=12.6,BA=5.64,STAT.D,ExtBa=12.20
19/09/2022,08:32:22,TEMP=12.9,BA=5.64,STAT.A,ExtBa=12.20
19/09/2022,08:45:23,TEMP=12.6,BA=5.64,STAT.D,ExtBa=12.20
19/09/2022,08:47:29,TEMP=13.1,BA=5.64,STAT.A,ExtBa=12.20
19/09/2022,08:53:55,TEMP=13.0,BA=5.60,STAT.D,ExtBa=12.20
19/09/2022,08:58:02,TEMP=13.0,BA=5.60,STAT.F,ExtBa=12.20
19/09/2022,09:09:23,TEMP=13.3,BA=5.64,STAT.D,ExtBa=12.20
19/09/2022,09:12:23,TEMP=13.7,BA=5.64,STAT.D,ExtBa=12.20
19/09/2022,09:14:22,TEMP=14.3,BA=5.64,STAT.D,ExtBa=12.20
19/09/2022,09:27:23,TEMP=13.3,BA=5.64,STAT.D,ExtBa=12.20
19/09/2022,09:29:23,TEMP=13.7,BA=5.64,STAT.D,ExtBa=12.20
19/09/2022,09:39:24,TEMP=13.6,BA=5.60,STAT.D,ExtBa=12.20
19/09/2022,09:42:23,TEMP=13.9,BA=5.60,STAT.D,ExtBa=12.20
19/09/2022,09:44:23,TEMP=14.3,BA=5.60,STAT.D,ExtBa=12.20
19/09/2022,09:57:24,TEMP=13.5,BA=5.64,STAT.D,ExtBa=12.20
19/09/2022,09:59:26,TEMP=13.9,BA=5.64,STAT.F,ExtBa=12.20
19/09/2022,10:03:24,TEMP=13.6,BA=5.60,STAT.D,ExtBa=12.20
19/09/2022,10:13:01,TEMP=14.3,BA=5.64,STAT.D,ExtBa=12.20
19/09/2022,10:19:27,TEMP=15.2,BA=5.64,STAT.D,ExtBa=12.20
19/09/2022,10:24:24,TEMP=15.7,BA=5.60,STAT.D,ExtBa=12.20
19/09/2022,10:27:24,TEMP=15.9,BA=5.60,STAT.D,ExtBa=12.20
19/09/2022,10:29:22,TEMP=16.3,BA=5.60,STAT.D,ExtBa=12.20
19/09/2022,10:33:24,TEMP=16.0,BA=5.60,STAT.D,ExtBa=12.20
19/09/2022,10:36:24,TEMP=16.1,BA=5.60,STAT.D,ExtBa=12.20
19/09/2022,10:39:24,TEMP=16.1,BA=5.60,STAT.D,ExtBa=12.20
19/09/2022,10:43:01,TEMP=16.0,BA=5.60,STAT.D,ExtBa=12.20
19/09/2022,10:45:24,TEMP=16.1,BA=5.60,STAT.D,ExtBa=12.20
19/09/2022,10:48:24,TEMP=16.0,BA=5.60,STAT.D,ExtBa=12.20
19/09/2022,10:51:24,TEMP=16.0,BA=5.56,STAT.D,ExtBa=12.20
19/09/2022,10:54:24,TEMP=16.0,BA=5.56,STAT.D,ExtBa=12.20
19/09/2022,10:57:24,TEMP=16.0,BA=5.56,STAT.D,ExtBa=12.20
19/09/2022,10:59:23,TEMP=16.3,BA=5.56,STAT.F,ExtBa=12.20
19/09/2022,11:24:31,TEMP=16.9,BA=5.56,STAT.b=11.0
19/09/2022,11:24:49,TEMP=16.9,BA=5.56,STAT.b=11.0
19/09/2022,11:27:23,TEMP=16.6,BA=5.56,STAT.D,ExtBa=12.10
19/09/2022,11:29:20,TEMP=16.9,BA=5.56,STAT.D,ExtBa=12.10
19/09/2022,11:33:24,TEMP=16.5,BA=5.56,STAT.D,ExtBa=12.10
19/09/2022,11:36:24,TEMP=16.6,BA=5.56,STAT.D,ExtBa=12.10
19/09/2022,11:39:24,TEMP=16.6,BA=5.56,STAT.D,ExtBa=12.10
19/09/2022,11:42:24,TEMP=16.6,BA=5.56,STAT.D,ExtBa=12.10
19/09/2022,11:44:25,TEMP=16.9,BA=5.56,STAT.D,ExtBa=12.10
19/09/2022,11:48:24,TEMP=16.4,BA=5.56,STAT.D,ExtBa=12.10
19/09/2022,11:51:24,TEMP=16.5,BA=5.60,STAT.D,ExtBa=12.10
19/09/2022,11:54:24,TEMP=16.5,BA=5.60,STAT.D,ExtBa=12.10
19/09/2022,11:57:24,TEMP=16.5,BA=5.60,STAT.D,ExtBa=12.10
19/09/2022,11:59:23,TEMP=16.8,BA=5.60,STAT.F,ExtBa=12.10
19/09/2022,12:24:19,TEMP=17.1,BA=5.56,STAT.D,ExtBa=12.10
19/09/2022,12:28:01,TEMP=16.6,BA=5.56,STAT.D,ExtBa=12.10
19/09/2022,12:30:24,TEMP=16.8,BA=5.60,STAT.D,ExtBa=12.10
19/09/2022,12:33:24,TEMP=16.7,BA=5.60,STAT.D,ExtBa=12.10
19/09/2022,12:36:24,TEMP=16.7,BA=5.60,STAT.D,ExtBa=12.10
19/09/2022,12:39:24,TEMP=16.7,BA=5.60,STAT.D,ExtBa=12.10
19/09/2022,12:42:24,TEMP=16.8,BA=5.56,STAT.D,ExtBa=12.10
19/09/2022,12:44:21,TEMP=17.1,BA=5.56,STAT.D,ExtBa=12.10
19/09/2022,12:50:55,TEMP=16.8,BA=5.56,STAT.D,ExtBa=12.10
19/09/2022,12:54:24,TEMP=16.9,BA=5.56,STAT.D,ExtBa=12.10
19/09/2022,12:57:24,TEMP=17.0,BA=5.56,STAT.D,ExtBa=12.10
19/09/2022,12:59:22,TEMP=17.3,BA=5.56,STAT.F,ExtBa=12.10
19/09/2022,13:24:01,TEMP=18.1,BA=5.52,STAT.D,ExtBa=12.10
19/09/2022,13:27:24,TEMP=17.7,BA=5.52,STAT.D,ExtBa=12.10
19/09/2022,13:29:22,TEMP=18.0,BA=5.52,STAT.D,ExtBa=12.10
19/09/2022,13:33:24,TEMP=17.7,BA=5.52,STAT.D,ExtBa=12.10
19/09/2022,13:36:24,TEMP=17.9,BA=5.52,STAT.D,ExtBa=12.10
19/09/2022,13:39:24,TEMP=17.9,BA=5.52,STAT.D,ExtBa=12.10
19/09/2022,13:42:24,TEMP=17.7,BA=5.56,STAT.D,ExtBa=12.10
19/09/2022,13:44:23,TEMP=17.8,BA=5.56,STAT.D,ExtBa=12.10
19/09/2022,13:57:24,TEMP=17.1,BA=5.64,STAT.D,ExtBa=12.10
19/09/2022,13:59:17,TEMP=17.7,BA=5.64,STAT.F,ExtBa=12.10
19/09/2022,14:23:51,TEMP=18.5,BA=5.56,STAT.D,ExtBa=12.10
19/09/2022,14:27:23,TEMP=18.2,BA=5.56,STAT.D,ExtBa=12.10
19/09/2022,14:29:21,TEMP=18.4,BA=5.56,STAT.D,ExtBa=12.10
19/09/2022,14:33:23,TEMP=18.1,BA=5.56,STAT.D,ExtBa=12.10
19/09/2022,14:36:24,TEMP=18.0,BA=5.56,STAT.D,ExtBa=12.10
19/09/2022,14:39:23,TEMP=17.9,BA=5.56,STAT.D,ExtBa=12.10
19/09/2022,14:42:23,TEMP=17.9,BA=5.56,STAT.D,ExtBa=12.10
19/09/2022,14:44:28,TEMP=18.1,BA=5.56,STAT.D,ExtBa=12.10
19/09/2022,14:48:23,TEMP=17.6,BA=5.56,STAT.D,ExtBa=12.10
19/09/2022,14:51:23,TEMP=17.5,BA=5.60,STAT.D,ExtBa=12.10
19/09/2022,14:54:23,TEMP=17.4,BA=5.60,STAT.D,ExtBa=12.10
19/09/2022,14:57:23,TEMP=17.3,BA=5.60,STAT.D,ExtBa=12.10
19/09/2022,14:59:23,TEMP=17.6,BA=5.60,STAT.F,ExtBa=12.10
19/09/2022,15:24:18,TEMP=16.5,BA=5.56,STAT.A,ExtBa=12.10
19/09/2022,15:27:39,TEMP=16.1,BA=5.56,STAT.A,ExtBa=12.10
19/09/2022,15:36:23,TEMP=16.1,BA=5.60,STAT.D,ExtBa=12.10
19/09/2022,15:38:43,TEMP=16.4,BA=5.60,STAT.A,ExtBa=12.10
19/09/2022,15:42:23,TEMP=16.4,BA=5.56,STAT.D,ExtBa=12.10
19/09/2022,15:45:23,TEMP=16.5,BA=5.56,STAT.D,ExtBa=12.10
19/09/2022,15:48:23,TEMP=16.5,BA=5.56,STAT.D,ExtBa=12.10
19/09/2022,15:50:22,TEMP=16.8,BA=5.60,STAT.C,ExtBa=12.10
19/09/2022,16:15:01,TEMP=17.0,BA=5.56,STAT.A,ExtBa=12.00
19/09/2022,16:18:19,TEMP=16.6,BA=5.56,STAT.A,ExtBa=12.10
19/09/2022,16:20:29,TEMP=16.8,BA=5.56,STAT.A,ExtBa=12.10
19/09/2022,16:22:39,TEMP=16.8,BA=5.56,STAT.A,ExtBa=12.10
19/09/2022,16:27:07,TEMP=16.4,BA=5.56,STAT.B,ExtBa=12.10
19/09/2022,16:38:54,TEMP=16.3,BA=5.52,STAT.A,ExtBa=12.10
19/09/2022,16:45:45,TEMP=16.0,BA=5.52,STAT.D,ExtBa=12.10
19/09/2022,16:48:10,TEMP=16.2,BA=5.52,STAT.A,ExtBa=12.10
19/09/2022,16:51:23,TEMP=15.9,BA=5.60,STAT.D,ExtBa=12.10
19/09/2022,16:55:40,TEMP=15.3,BA=5.60,STAT.A,ExtBa=12.10
19/09/2022,17:07:04,TEMP=13.6,BA=5.64,STAT.A,ExtBa=12.10
19/09/2022,17:09:22,TEMP=13.6,BA=5.64,STAT.D,ExtBa=12.10
19/09/2022,17:11:31,TEMP=13.6,BA=5.52,STAT.A,ExtBa=12.10